Home > Weather > Neubrandenburg > Past weeks

Flag for Germany Past Weather in Neubrandenburg, Mecklenburg-Western Pomerania, Germany — Yesterday and Last 2 Weeks

Now
57 °F

Mostly cloudy.


Feels Like: 57 °F
Forecast: 58 / 76 °F
Wind: 1 mph from Southeast

Location: Laage

Current Time: Jul 27, 2016 at 3:57:51 AM

Latest Report: Jul 27, 2016 at 3:20 AM


Visibility: N/A

Pressure: 30.09 "Hg

Humidity: 88%

Dew Point: 54 °F

Location of NeubrandenburgLocation

Past Weather in Neubrandenburg — Graph

°F

Neubrandenburg Temperature Yesterday

Maximum temperature yesterday: 73 °F (at 3:20 PM)
Minimum temperature yesterday: 61 °F (at 11:20 PM)
Average temperature yesterday: 68 °F

High & Low Weather Summary for the Past Weeks

 TemperatureHumidityPressure
High84 °F (Jul 21, 5:20 PM)100% (Jul 14, 3:20 AM)30.18 "Hg (Jul 14, 3:20 AM)
Low52 °F (Jul 14, 3:20 AM)30% (Jul 22, 1:20 PM)29.77 "Hg (Jul 12, 4:20 AM)
Average65 °F73%30.04 "Hg
* Reported Jul 12 2:20 AM — Jul 27 2:20 AM, Neubrandenburg, Weather by CustomWeather, © 2016

Note: Actual official high and low records may vary slightly from our data, if they occured in-between our weather recording intervals... More about our weather records

Advertising

Neubrandenburg Weather History for the Previous 24 Hours

Scroll right to see more
 ConditionsComfort  
Time TempWeatherWind HumidityBarometerVisibility
2:20 AM
Wed, Jul 27
57 °FPassing clouds.2 mph88%30.12 "HgN/A
1:20 AM57 °FPassing clouds.No wind88%30.12 "HgN/A
12:20 AM59 °FPassing clouds.1 mph88%30.12 "HgN/A
11:20 PM
Tue, Jul 26
61 °FPassing clouds.2 mph77%30.12 "HgN/A
10:20 PM63 °FPassing clouds.5 mph73%30.12 "HgN/A
9:20 PM66 °FScattered clouds.5 mph64%30.12 "HgN/A
8:20 PM70 °FScattered clouds.6 mph57%30.12 "HgN/A
7:20 PM70 °FScattered clouds.7 mph57%30.12 "HgN/A
6:20 PM73 °FScattered clouds.6 mph50%30.09 "HgN/A
5:20 PM73 °FScattered clouds.5 mph47%30.09 "HgN/A
4:20 PM73 °FScattered clouds.7 mph50%30.12 "HgN/A
3:20 PM73 °FScattered clouds.9 mph50%30.12 "HgN/A
2:20 PM72 °FScattered clouds.10 mph53%30.12 "HgN/A
1:20 PM72 °FScattered clouds.10 mph53%30.12 "HgN/A
12:20 PM70 °FScattered clouds.8 mph60%30.12 "HgN/A
11:20 AM70 °FScattered clouds.10 mph64%30.12 "HgN/A
10:20 AM68 °FScattered clouds.10 mph78%30.09 "HgN/A
9:20 AM68 °FScattered clouds.13 mph83%30.09 "HgN/A
8:20 AM68 °FPartly sunny.9 mph83%30.09 "HgN/A
7:20 AM64 °FPartly sunny.8 mph94%30.07 "Hg4 mi
6:20 AM66 °FFog.6 mph94%30.07 "Hg3 mi
5:20 AM64 °FFog.6 mph94%30.07 "Hg3 mi
4:20 AM64 °FPassing clouds.1 mph94%30.04 "Hg4 mi
3:20 AM64 °FFog.5 mph100%30.04 "Hg5 mi
Weather by CustomWeather, © 2016

See weather overviewHow to use our weather pages